This is the latest recevied weather packets stored in our database for station/object AF9W-5. If no packets are shown the sender has not sent any weather packets the latest 10 day(s).
| Time | Temp. | Humidity | Pressure | Rain* | Wind** | Luminosity | Snow |
|---|---|---|---|---|---|---|---|
| 1777641033 | 13.33° C | 63% | 1012 hPa | 0 mm | - | 27 W/m² | - |
| 1777640730 | 12.78° C | 64% | 1012 hPa | 0 mm | - | 23 W/m² | - |
| 1777640427 | 12.78° C | 65% | 1011.7 hPa | 0 mm | - | 17 W/m² | - |
| 1777640124 | 12.78° C | 66% | 1011.5 hPa | 0 mm | - | 14 W/m² | - |
| 1777639820 | 12.22° C | 66% | 1011.4 hPa | 0 mm | - | 11 W/m² | - |
| 1777639518 | 12.22° C | 67% | 1011.5 hPa | 0 mm | - | 8 W/m² | - |
| 1777639215 | 12.78° C | 66% | 1011.4 hPa | 0 mm | - | 4 W/m² | - |
| 1777638911 | 12.78° C | 66% | 1011.4 hPa | 0 mm | - | 3 W/m² | - |
| 1777638606 | 12.78° C | 66% | 1011.1 hPa | 0 mm | - | 1 W/m² | - |
| 1777638304 | 12.78° C | 66% | 1011.2 hPa | 0 mm | - | 0 W/m² | - |
| 1777637999 | 12.78° C | 65% | 1011.3 hPa | 0 mm | - | 0 W/m² | - |
| 1777637696 | 12.78° C | 66% | 1011 hPa | 0 mm | - | 0 W/m² | - |
| 1777637393 | 12.78° C | 65% | 1011.3 hPa | 0 mm | - | 0 W/m² | - |
| 1777637089 | 12.78° C | 66% | 1011.2 hPa | 0 mm | - | 0 W/m² | - |
| 1777636785 | 12.78° C | 66% | 1011.3 hPa | 0 mm | - | 0 W/m² | - |
| 1777636482 | 12.78° C | 65% | 1011.2 hPa | 0 mm | - | 0 W/m² | - |
| 1777636178 | 12.78° C | 65% | 1011.3 hPa | 0 mm | - | 0 W/m² | - |
| 1777635873 | 12.22° C | 65% | 1011.1 hPa | 0 mm | - | 0 W/m² | - |
| 1777635569 | 12.22° C | 65% | 1011.2 hPa | 0 mm | - | 0 W/m² | - |
| 1777635266 | 12.78° C | 64% | 1011 hPa | 0 mm | - | 0 W/m² | - |
| 1777634963 | 12.78° C | 64% | 1010.9 hPa | 0 mm | - | 0 W/m² | - |
| 1777634660 | 12.78° C | 65% | 1010.9 hPa | 0 mm | - | 0 W/m² | - |
| 1777634357 | 12.78° C | 66% | 1011 hPa | 0 mm | - | 0 W/m² | - |
| 1777634053 | 12.78° C | 64% | 1010.9 hPa | 0 mm | - | 0 W/m² | - |
| 1777633750 | 13.33° C | 63% | 1010.9 hPa | 0 mm | - | 0 W/m² | - |
* Rain latest hour (hover to see other rain measurements)
** Current wind speed in m/s (hover to see current wind gust speed)